Simultaneous Nadir Overpasses (SNOs) Predictions

Prediction of SNOs between AQUA and METOP-C Satellite Orbit:

Table of predicted SNOs for the next 14.0 days since TLE Epoch: 5/25/2024
Index Date (AQUA) Time (AQUA) Lat,Lon (AQUA) SZA (AQUA ) Date (METOP-C) Time (METOP-C) Lat,Lon (METOP-C) SZA (METOP-C ) Distance(km) Time Diff (sec)
1 05/27/2024 08:40:51 -75.34,-131.79 126.15 05/27/2024 08:40:15 -75.33,-131.91 126.16 3.79 36
2 05/27/2024 09:30:16 75.43, 35.61 53.94 05/27/2024 09:30:54 75.40, 35.63 53.91 3.64 38
3 05/30/2024 00:02:07 75.34, 177.95 53.44 05/30/2024 00:01:14 75.32, 177.83 53.43 3.75 53
4 05/30/2024 00:51:29 -75.39, -14.53 126.51 05/30/2024 00:51:54 -75.38, -14.66 126.52 3.75 25
5 06/01/2024 15:23:21 -75.37, 127.61 126.89 06/01/2024 15:22:14 -75.35, 127.66 126.91 2.42 67
6 06/01/2024 16:12:45 75.42, -64.89 53.16 06/01/2024 16:12:53 75.41, -64.83 53.15 2.03 8
7 06/01/2024 17:02:17 -75.95, 101.18 126.30 06/01/2024 17:03:23 -75.94, 104.19 126.33 81.49 66
8 06/04/2024 06:44:29 75.08, 78.13 52.50 06/04/2024 06:43:20 75.02, 76.44 52.45 49.02 69
9 06/04/2024 07:33:57 -75.43,-115.16 127.16 06/04/2024 07:33:53 -75.43,-115.02 127.16 3.81 4
10 06/04/2024 08:23:21 75.48, 52.33 52.90 06/04/2024 08:24:32 75.48, 52.47 52.89 3.83 71
11 06/06/2024 22:55:08 75.38,-165.27 52.53 06/06/2024 22:54:52 75.41,-165.31 52.56 3.33 16



Historial Predications of SNOs between AQUA and METOP-C
